GW2810 Weather Reports


time (UTC)temp
C
wind
direction
speed
KPH
gust
KPH
rain 1hr
cm
rain 24hr
cm
rain mn
cm
humidity
%
barometer
mb
20260507212103 20 32 4.8 6.4 0.00 0.00 0.00 43 1009.8
20260507211559 20 144 3.2 9.7 0.00 0.00 0.00 42 1009.6
20260507211055 19 69 1.6 6.4 0.00 0.00 0.00 42 1010.1
20260507210553 18 86 8.0 11.3 0.00 0.00 0.00 42 1009.9
20260507210050 19 106 4.8 11.3 0.00 0.00 0.00 42 1009.8
20260507205546 20 32 6.4 12.9 0.00 0.00 0.00 41 1010.0
20260507205043 19 47 4.8 6.4 0.00 0.00 0.00 42 1009.9
20260507204539 20 205 3.2 11.3 0.00 0.00 0.00 43 1009.9
20260507204037 20 16 6.4 12.9 0.00 0.00 0.00 39 1010.0
20260507203534 18 34 8.0 11.3 0.00 0.00 0.00 42 1010.0
20260507203032 20 59 6.4 16.1 0.00 0.00 0.00 41 1010.0
20260507202527 18 51 3.2 9.7 0.00 0.00 0.00 42 1010.0
20260507202024 20 45 4.8 6.4 0.00 0.00 0.00 43 1010.2
20260507201519 20 207 6.4 9.7 0.00 0.00 0.00 41 1010.4
20260507201016 20 5 4.8 12.9 0.00 0.00 0.00 39 1010.2
20260507200511 20 247 6.4 9.7 0.00 0.00 0.00 41 1010.2
20260507200008 20 209 3.2 9.7 0.00 0.00 0.00 40 1010.4
20260507195505 19 43 3.2 6.4 0.00 0.00 0.00 43 1010.4
20260507195003 20 17 4.8 9.7 0.00 0.00 0.00 42 1010.6
20260507194458 20 214 8.0 16.1 0.00 0.00 0.00 39 1010.4
20260507193954 20 41 3.2 12.9 0.00 0.00 0.00 40 1010.7
20260507193452 18 32 6.4 11.3 0.00 0.00 0.00 41 1010.6
20260507192948 19 69 3.2 6.4 0.00 0.00 0.00 41 1010.8
20260507192444 19 63 6.4 12.9 0.00 0.00 0.00 43 1010.8
20260507191942 19 50 3.2 12.9 0.00 0.00 0.00 44 1010.7
20260507191437 19 89 6.4 12.9 0.00 0.00 0.00 43 1010.9
20260507190934 18 76 3.2 6.4 0.00 0.00 0.00 43 1011.0
20260507190432 18 51 3.2 9.7 0.00 0.00 0.00 42 1010.9
20260507185931 20 17 3.2 6.4 0.00 0.00 0.00 42 1010.9
20260507185428 19 310 3.2 12.9 0.00 0.00 0.00 43 1011.0
20260507184924 18 255 4.8 9.7 0.00 0.00 0.00 42 1011.1
20260507184422 20 22 6.4 11.3 0.00 0.00 0.00 41 1011.1
20260507183920 19 56 3.2 9.7 0.00 0.00 0.00 45 1011.0
20260507183416 20 59 6.4 11.3 0.00 0.00 0.00 41 1011.1
20260507182914 19 223 3.2 4.8 0.00 0.00 0.00 45 1011.3
20260507182409 19 62 8.0 12.9 0.00 0.00 0.00 44 1011.3
20260507181906 18 61 6.4 6.4 0.00 0.00 0.00 44 1011.3
20260507181402 18 60 6.4 9.7 0.00 0.00 0.00 44 1011.4
20260507180859 18 28 8.0 14.5 0.00 0.00 0.00 45 1011.5
20260507180355 18 50 3.2 6.4 0.00 0.00 0.00 47 1011.6
20260507175852 18 56 6.4 12.9 0.00 0.00 0.00 45 1011.8
20260507175348 19 51 3.2 11.3 0.00 0.00 0.00 44 1011.6
20260507174846 18 35 1.6 6.4 0.00 0.00 0.00 48 1011.7
20260507174343 18 336 8.0 16.1 0.00 0.00 0.00 46 1012.0
20260507173841 18 150 6.4 14.5 0.00 0.00 0.00 47 1012.1
20260507173338 18 338 6.4 12.9 0.00 0.00 0.00 46 1011.9
20260507172833 17 328 8.0 24.1 0.00 0.00 0.00 48 1012.1
20260507172331 17 50 4.8 9.7 0.00 0.00 0.00 48 1012.1
20260507171827 17 316 9.7 17.7 0.00 0.00 0.00 50 1012.3
20260507171324 17 57 6.4 11.3 0.00 0.00 0.00 48 1012.4
20260507170821 17 63 3.2 20.9 0.00 0.00 0.00 48 1012.6
20260507170317 17 97 6.4 14.5 0.00 0.00 0.00 50 1012.6
20260507165813 17 73 3.2 11.3 0.00 0.00 0.00 48 1012.5
20260507165309 17 35 6.4 11.3 0.00 0.00 0.00 51 1012.7
20260507164805 17 329 4.8 11.3 0.00 0.00 0.00 52 1012.8
20260507164303 17 346 14.5 16.1 0.00 0.00 0.00 52 1012.8
20260507163759 17 66 3.2 11.3 0.00 0.00 0.00 54 1012.9
20260507163257 17 11 6.4 14.5 0.00 0.00 0.00 51 1012.8
20260507162753 17 59 3.2 6.4 0.00 0.00 0.00 52 1012.8
20260507162249 17 47 3.2 9.7 0.00 0.00 0.00 53 1012.8
20260507161747 17 23 6.4 11.3 0.00 0.00 0.00 51 1013.0
20260507161243 17 62 4.8 11.3 0.00 0.00 0.00 53 1012.9
20260507160738 16 18 3.2 22.5 0.00 0.00 0.00 52 1013.0
20260507160235 16 61 1.6 9.7 0.00 0.00 0.00 54 1013.0
20260507155731 16 300 4.8 11.3 0.00 0.00 0.00 54 1012.9
20260507155227 16 72 4.8 12.9 0.00 0.00 0.00 55 1012.9
20260507154724 16 57 3.2 9.7 0.00 0.00 0.00 56 1013.0
20260507154222 16 90 4.8 12.9 0.00 0.00 0.00 53 1013.0
20260507153718 15 40 3.2 11.3 0.00 0.00 0.00 58 1013.2
20260507153215 15 64 1.6 12.9 0.00 0.00 0.00 59 1013.2
20260507152711 15 80 3.2 6.4 0.00 0.00 0.00 59 1013.1
20260507152207 15 276 9.7 14.5 0.00 0.00 0.00 59 1012.9
20260507151703 15 74 6.4 9.7 0.00 0.00 0.00 58 1013.1
20260507151200 15 84 4.8 6.4 0.00 0.00 0.00 58 1013.1
20260507150657 15 120 3.2 4.8 0.00 0.00 0.00 60 1013.3
20260507150154 15 66 3.2 9.7 0.00 0.00 0.00 60 1013.2
20260507145649 15 56 3.2 12.9 0.00 0.00 0.00 59 1013.3
20260507145147 14 61 3.2 9.7 0.00 0.00 0.00 60 1013.4
20260507144643 14 21 6.4 12.9 0.00 0.00 0.00 61 1013.3
20260507144142 13 52 1.6 6.4 0.00 0.00 0.00 62 1013.4
20260507143638 13 276 4.8 11.3 0.00 0.00 0.00 61 1013.4
20260507143135 13 47 6.4 9.7 0.00 0.00 0.00 63 1013.4
20260507142630 13 74 3.2 6.4 0.00 0.00 0.00 64 1013.5
20260507142127 13 69 3.2 12.9 0.00 0.00 0.00 65 1013.5
20260507141623 12 138 3.2 9.7 0.00 0.00 0.00 65 1013.5
20260507141121 12 70 3.2 6.4 0.00 0.00 0.00 65 1013.5
20260507140617 12 68 3.2 6.4 0.00 0.00 0.00 65 1013.5
20260507140114 12 321 1.6 9.7 0.00 0.00 0.00 65 1013.8
20260507135611 12 59 3.2 9.7 0.00 0.00 0.00 66 1013.7
20260507135109 12 52 3.2 11.3 0.00 0.00 0.00 66 1013.7
20260507134605 12 149 3.2 6.4 0.00 0.00 0.00 67 1013.8
20260507134101 11 79 3.2 6.4 0.00 0.00 0.00 67 1013.8
20260507133557 11 66 1.6 6.4 0.00 0.00 0.00 66 1013.7
20260507133055 11 111 3.2 6.4 0.00 0.00 0.00 67 1013.8
20260507132552 11 57 3.2 6.4 0.00 0.00 0.00 67 1013.7
20260507132048 10 13 3.2 6.4 0.00 0.00 0.00 68 1013.8
20260507131545 10 69 3.2 9.7 0.00 0.00 0.00 68 1014.0
20260507131042 10 357 4.8 9.7 0.00 0.00 0.00 67 1013.9
20260507130539 10 66 3.2 9.7 0.00 0.00 0.00 68 1014.0
20260507130037 10 80 4.8 6.4 0.00 0.00 0.00 67 1014.0
20260507125535 10 74 3.2 4.8 0.00 0.00 0.00 68 1013.9
20260507125032 9 159 3.2 4.8 0.00 0.00 0.00 68 1013.9
20260507124529 9 100 1.6 6.4 0.00 0.00 0.00 69 1013.8
20260507124027 8 123 1.6 4.8 0.00 0.00 0.00 68 1013.9
20260507123525 8 88 3.2 3.2 0.00 0.00 0.00 69 1014.0
20260507123021 8 85 3.2 4.8 0.00 0.00 0.00 68 1013.8
20260507122516 8 94 3.2 9.7 0.00 0.00 0.00 69 1013.9
20260507122012 7 108 3.2 6.4 0.00 0.00 0.00 69 1013.9
20260507121508 7 121 4.8 6.4 0.00 0.00 0.00 69 1013.5
20260507121004 7 124 0.0 6.4 0.00 0.00 0.00 70 1013.8
20260507120500 7 132 3.2 4.8 0.00 0.00 0.00 70 1013.8
20260507115957 7 138 3.2 9.7 0.00 0.00 0.00 71 1013.9
20260507115454 6 144 1.6 4.8 0.00 0.00 0.00 70 1013.8
20260507114949 6 147 1.6 6.4 0.00 0.00 0.00 71 1013.8
20260507114446 6 150 3.2 4.8 0.00 0.00 0.00 71 1013.8
20260507113943 6 152 1.6 3.2 0.00 0.00 0.00 71 1013.9
20260507113440 6 154 3.2 4.8 0.00 0.00 0.00 71 1013.8
20260507112938 6 156 1.6 4.8 0.00 0.00 0.00 72 1013.7
20260507112435 5 157 1.6 3.2 0.00 0.00 0.00 72 1013.7
20260507111932 5 162 3.2 4.8 0.00 0.00 0.00 72 1013.7
20260507111429 5 163 1.6 4.8 0.00 0.00 0.00 72 1013.7
20260507110925 5 166 4.8 6.4 0.00 0.00 0.00 72 1013.5
20260507110421 5 166 1.6 3.2 0.00 0.00 0.00 72 1013.6
20260507105918 5 168 3.2 4.8 0.00 0.00 0.00 71 1013.8
20260507105415 5 171 3.2 4.8 0.00 0.00 0.00 71 1013.6
20260507104912 5 170 1.6 4.8 0.00 0.00 0.00 71 1013.5
20260507104409 5 171 0.0 3.2 0.00 0.00 0.00 71 1014.0
20260507103904 5 172 3.2 6.4 0.00 0.00 0.00 71 1013.9
20260507103402 5 175 1.6 4.8 0.00 0.00 0.00 71 1013.9
20260507102857 5 175 0.0 1.6 0.00 0.00 0.00 71 1013.8
20260507102354 5 175 3.2 3.2 0.00 0.00 0.00 70 1013.8
20260507101851 5 172 1.6 3.2 0.00 0.00 0.00 69 1013.8
20260507101350 5 176 3.2 3.2 0.00 0.00 0.00 68 1013.7
20260507100848 5 177 1.6 6.4 0.00 0.00 0.00 68 1013.8
20260507100346 5 178 3.2 4.8 0.00 0.00 0.00 67 1013.8
20260507095844 5 179 1.6 6.4 0.00 0.00 0.00 68 1013.8
20260507095340 5 179 0.0 3.2 0.00 0.00 0.00 68 1014.3
20260507094837 5 180 0.0 4.8 0.00 0.00 0.00 68 1014.1
20260507094333 5 180 1.6 4.8 0.00 0.00 0.00 68 1014.0
20260507093831 5 181 4.8 4.8 0.00 0.00 0.00 68 1014.3
20260507093329 5 181 1.6 3.2 0.00 0.00 0.00 70 1014.4
20260507092827 5 181 3.2 4.8 0.00 0.00 0.00 70 1014.4
20260507092323 5 182 1.6 4.8 0.00 0.00 0.00 72 1014.0
20260507091819 5 183 1.6 3.2 0.00 0.00 0.00 71 1014.1
20260507091316 5 184 1.6 4.8 0.00 0.00 0.00 70 1014.1
20260507090811 5 185 1.6 3.2 0.00 0.00 0.00 70 1014.1
20260507090308 5 185 1.6 4.8 0.00 0.00 0.00 70 1014.3
20260507085805 5 186 0.0 4.8 0.00 0.00 0.00 69 1014.5
20260507085305 5 187 1.6 6.4 0.00 0.00 0.00 70 1014.6
20260507084759 5 188 1.6 3.2 0.00 0.00 0.00 69 1014.4
20260507084255 5 189 1.6 4.8 0.00 0.00 0.00 69 1014.5
20260507083753 5 197 3.2 6.4 0.00 0.00 0.00 69 1014.5
20260507083249 5 202 1.6 6.4 0.00 0.00 0.00 69 1014.5
20260507082745 5 210 0.0 3.2 0.00 0.00 0.00 69 1014.6
20260507082241 5 212 1.6 4.8 0.00 0.00 0.00 68 1014.5
20260507081738 5 214 3.2 4.8 0.00 0.00 0.00 68 1014.6
20260507081234 5 216 3.2 4.8 0.00 0.00 0.00 68 1015.0
20260507080731 5 231 4.8 4.8 0.00 0.00 0.00 68 1014.7
20260507080227 5 263 3.2 4.8 0.00 0.00 0.00 67 1014.8
20260507075723 5 320 3.2 4.8 0.00 0.00 0.00 66 1014.8
20260507075219 5 326 3.2 4.8 0.00 0.00 0.00 66 1014.9
20260507074715 5 331 1.6 3.2 0.00 0.00 0.00 66 1015.0
20260507074214 5 335 3.2 4.8 0.00 0.00 0.00 66 1014.9
20260507073710 5 337 1.6 4.8 0.00 0.00 0.00 65 1015.0
20260507073206 5 338 4.8 4.8 0.00 0.00 0.00 65 1015.3
20260507072705 5 339 4.8 6.4 0.00 0.00 0.00 65 1015.0
20260507072202 5 342 3.2 4.8 0.00 0.00 0.00 65 1015.1
20260507071659 5 342 3.2 4.8 0.00 0.00 0.00 66 1015.2
20260507071155 5 342 1.6 3.2 0.00 0.00 0.00 66 1015.5
20260507070653 5 342 1.6 1.6 0.00 0.00 0.00 66 1015.5
20260507070149 5 342 0.0 3.2 0.00 0.00 0.00 67 1015.5
20260507065645 5 342 1.6 1.6 0.00 0.00 0.00 67 1015.5
20260507065142 5 342 0.0 1.6 0.00 0.00 0.00 66 1015.4
20260507064640 5 342 1.6 3.2 0.00 0.00 0.00 66 1015.6
20260507064139 6 342 1.6 3.2 0.00 0.00 0.00 65 1015.6
20260507063636 5 342 1.6 3.2 0.00 0.00 0.00 65 1015.5
20260507063132 5 342 1.6 1.6 0.00 0.00 0.00 67 1015.7
20260507062629 5 342 0.0 1.6 0.00 0.00 0.00 67 1015.8
20260507062127 5 342 0.0 1.6 0.00 0.00 0.00 67 1015.6
20260507061624 5 342 0.0 1.6 0.00 0.00 0.00 67 1015.8
20260507061123 5 343 1.6 1.6 0.00 0.00 0.00 66 1015.9
20260507060620 5 342 1.6 1.6 0.00 0.00 0.00 67 1015.9
20260507060117 6 343 1.6 1.6 0.00 0.00 0.00 67 1016.0
20260507055612 5 342 0.0 1.6 0.00 0.00 0.00 67 1016.1
20260507055108 6 342 1.6 1.6 0.00 0.00 0.00 67 1015.9
20260507054604 5 342 0.0 1.6 0.00 0.00 0.00 66 1016.0
20260507054101 5 342 0.0 0.0 0.00 0.00 0.00 66 1016.2
20260507053559 6 342 0.0 0.0 0.00 0.00 0.00 66 1016.1
20260507053058 6 342 0.0 1.6 0.00 0.00 0.00 65 1016.1
20260507052556 6 342 0.0 1.6 0.00 0.00 0.00 63 1016.0
20260507052052 6 342 0.0 1.6 0.00 0.00 0.00 64 1016.1
20260507051549 6 342 0.0 0.0 0.00 0.00 0.00 64 1015.9
20260507051046 6 342 0.0 1.6 0.00 0.00 0.00 60 1016.2
20260507050543 6 342 0.0 0.0 0.00 0.00 0.00 61 1016.1
20260507050039 7 342 0.0 0.0 0.00 0.00 0.00 61 1016.1
20260507045536 7 342 0.0 1.6 0.00 0.00 0.00 58 1016.2
20260507045033 7 342 0.0 1.6 0.00 0.00 0.00 57 1016.0
20260507044530 7 342 1.6 1.6 0.00 0.00 0.00 58 1016.0
20260507044027 7 342 1.6 1.6 0.00 0.00 0.00 58 1016.1
20260507043522 7 342 0.0 1.6 0.00 0.00 0.00 58 1016.2
20260507043020 7 342 0.0 1.6 0.00 0.00 0.00 59 1016.3
20260507042516 6 342 0.0 1.6 0.00 0.00 0.00 61 1016.4
20260507042011 6 342 0.0 0.0 0.00 0.00 0.00 63 1016.3
20260507041509 7 342 0.0 0.0 0.00 0.00 0.00 63 1016.3
20260507041006 7 342 0.0 1.6 0.00 0.00 0.00 64 1016.6
20260507040501 7 342 1.6 3.2 0.00 0.00 0.00 63 1016.2
20260507035957 7 342 1.6 1.6 0.00 0.00 0.00 62 1016.0
20260507035454 6 342 0.0 1.6 0.00 0.00 0.00 64 1016.4
20260507034950 6 342 0.0 1.6 0.00 0.00 0.00 67 1016.2
20260507034447 6 342 0.0 1.6 0.00 0.00 0.00 68 1016.3
20260507033946 6 342 0.0 0.0 0.00 0.00 0.00 67 1016.3
20260507033443 6 342 0.0 0.0 0.00 0.00 0.00 64 1016.4
20260507032940 6 342 0.0 0.0 0.00 0.00 0.00 58 1016.4
20260507032437 6 342 0.0 0.0 0.00 0.00 0.00 61 1016.3
20260507031933 7 342 0.0 0.0 0.00 0.00 0.00 56 1016.4
20260507031430 7 342 0.0 0.0 0.00 0.00 0.00 54 1016.2
20260507030926 7 342 0.0 0.0 0.00 0.00 0.00 53 1016.4
20260507030424 7 342 0.0 0.0 0.00 0.00 0.00 52 1016.3
20260507025921 7 342 0.0 0.0 0.00 0.00 0.00 54 1016.2
20260507025418 7 342 0.0 0.0 0.00 0.00 0.00 51 1016.4
20260507024916 7 342 0.0 0.0 0.00 0.00 0.00 50 1016.1
20260507024413 7 342 0.0 0.0 0.00 0.00 0.00 51 1016.2
20260507023908 7 342 0.0 0.0 0.00 0.00 0.00 50 1016.1
20260507023406 7 342 0.0 0.0 0.00 0.00 0.00 49 1016.1
20260507022903 7 342 0.0 0.0 0.00 0.00 0.00 49 1016.3
20260507022359 7 342 0.0 0.0 0.00 0.00 0.00 50 1016.1
20260507021855 7 342 0.0 0.0 0.00 0.00 0.00 49 1016.0
20260507021350 8 342 0.0 0.0 0.00 0.00 0.00 47 1015.9
20260507020849 8 342 0.0 0.0 0.00 0.00 0.00 46 1016.1
20260507020345 8 342 0.0 0.0 0.00 0.00 0.00 46 1015.9
20260507015842 8 342 0.0 1.6 0.00 0.00 0.00 47 1015.8
20260507015340 8 342 0.0 0.0 0.00 0.00 0.00 45 1016.1
20260507014837 9 342 0.0 0.0 0.00 0.00 0.00 45 1015.9
20260507014333 10 342 0.0 0.0 0.00 0.00 0.00 42 1015.7
20260507013830 9 342 0.0 0.0 0.00 0.00 0.00 45 1016.0
20260507013327 10 342 0.0 0.0 0.00 0.00 0.00 44 1015.7
20260507012825 10 342 0.0 0.0 0.00 0.00 0.00 42 1015.7
20260507012320 10 342 0.0 0.0 0.00 0.00 0.00 42 1015.7
20260507011812 11 342 0.0 0.0 0.00 0.00 0.00 40 1015.6
20260507011309 11 342 0.0 1.6 0.00 0.00 0.00 39 1015.7
20260507010808 11 342 0.0 0.0 0.00 0.00 0.00 40 1015.7
20260507010304 11 342 0.0 1.6 0.00 0.00 0.00 40 1015.7
20260507005802 12 341 1.6 3.2 0.00 0.00 0.00 38 1015.5
20260507005258 12 341 1.6 3.2 0.00 0.00 0.00 38 1015.7
20260507004755 12 341 0.0 3.2 0.00 0.00 0.00 38 1015.6
20260507004252 12 341 3.2 3.2 0.00 0.00 0.00 37 1015.7
20260507003748 12 340 3.2 4.8 0.00 0.00 0.00 36 1015.6
20260507003244 12 339 3.2 6.4 0.00 0.00 0.00 35 1015.8
20260507002740 12 337 3.2 6.4 0.00 0.00 0.00 37 1015.7
20260507002236 12 334 3.2 3.2 0.00 0.00 0.00 36 1015.7
20260507001733 13 332 3.2 6.4 0.00 0.00 0.00 35 1015.6
20260507001231 13 320 1.6 3.2 0.00 0.00 0.00 35 1015.8
20260507000727 13 316 1.6 4.8 0.00 0.00 0.00 36 1015.9
20260507000222 13 315 1.6 9.7 0.00 0.00 0.00 35 1015.8
20260506235720 13 314 3.2 6.4 0.00 0.00 0.00 35 1015.9
20260506235215 13 357 8.0 9.7 0.00 0.00 0.00 34 1015.9
20260506234712 12 338 3.2 9.7 0.00 0.00 0.00 35 1015.9
20260506234210 13 355 8.0 12.9 0.00 0.00 0.00 35 1016.0
20260506233707 13 318 6.4 12.9 0.00 0.00 0.00 34 1015.8
20260506233203 13 318 3.2 11.3 0.00 0.00 0.00 34 1015.9
20260506232700 13 355 9.7 20.9 0.00 0.00 0.00 33 1016.1
20260506232154 13 319 3.2 11.3 0.00 0.00 0.00 32 1015.8
20260506231652 13 351 3.2 11.3 0.00 0.00 0.00 33 1016.0
20260506231151 13 321 11.3 16.1 0.00 0.00 0.00 33 1016.1
20260506230647 14 320 9.7 17.7 0.00 0.00 0.00 32 1016.1
20260506230144 14 334 6.4 12.9 0.00 0.00 0.00 33 1016.1
20260506225640 14 330 11.3 16.1 0.00 0.00 0.00 32 1016.0
20260506225137 14 337 9.7 14.5 0.00 0.00 0.00 32 1016.3
20260506224634 14 351 16.1 29.0 0.00 0.00 0.00 35 1015.9
20260506224130 13 350 11.3 14.5 0.00 0.00 0.00 32 1016.2
20260506223626 13 2 11.3 20.9 0.00 0.00 0.00 33 1016.2
20260506223122 13 323 9.7 20.9 0.00 0.00 0.00 34 1016.3
20260506222620 13 272 8.0 22.5 0.00 0.00 0.00 33 1016.1
20260506222116 13 317 19.3 27.4 0.00 0.00 0.00 34 1016.1
20260506221614 13 11 6.4 16.1 0.00 0.00 0.00 35 1016.2
20260506221112 13 286 22.5 29.0 0.00 0.00 0.00 34 1016.3
20260506220608 13 316 6.4 11.3 0.00 0.00 0.00 35 1016.3
20260506215600 13 3 9.7 14.5 0.00 0.00 0.00 33 1016.3
20260506215055 13 339 6.4 11.3 0.00 0.00 0.00 35 1016.3
20260506214553 14 289 9.7 11.3 0.00 0.00 0.00 32 1016.0
20260506214050 14 303 8.0 20.9 0.00 0.00 0.00 36 1016.2
20260506213548 14 288 16.1 17.7 0.00 0.00 0.00 38 1016.3
20260506213045 13 349 6.4 22.5 0.00 0.00 0.00 33 1016.3
20260506212542 13 303 14.5 20.9 0.00 0.00 0.00 33 1016.6